Location: Maccacari
(45.1333°N, 11.1333°E)
Time: 01:18:21
(UTC+00:00)

A-11 Canister half - Pass Details

Date: 30 January 2021
Orbit: 1525 x 1684 km, 47.3° (Epoch: 07 March)

Event Time Altitude Azimuth Distance (km) Brightness Sun altitude
Rises 16:26:35 0° 285° (WNW) 4,699 12.5 -1.8°
Reaches altitude 10° 16:29:36 10° 286° (WNW) 3,728 11.9 -2.3°
Maximum altitude 16:39:05 90° 209° (SSW) 1,584 9.2 -3.9°
Drops below altitude 10° 16:48:54 10° 109° (ESE) 3,843 10.6 -5.5°
Sets 16:52:03 0° 110° (ESE) 4,849 11.1 -6.0°
